Regional Weather Roundup
Issued by NWS

Home | Current Version | Previous Version | Graphics & Text | Print | Product List | Glossary On
Versions: 1 2 3 4 5 6 7 8 9 10 11 12 13 14 15 16 17 18 19 20 21 22 23 24 25 26 27 28 29 30 31 32 33 34 35 36 37 38 39 40 41 42 43 44 45 46 47 48 49 50
631
ASUS45 KBOU 282310
RWRCO

WEATHER ROUNDUP FOR COLORADO
NATIONAL WEATHER SERVICE DENVER/BOULDER CO
500 PM MDT WED SEP 28 2016

NOTE: "FAIR" INDICATES FEW OR NO CLOUDS BELOW 12000 FEET WITH NO
SIGNIFICANT WEATHER AND/OR OBSTRUCTIONS TO VISIBILITY.

COZ001>005-013-030-031-290000-
...NORTHWEST COLORADO...

CITY           SKY/WX    TMP DP  RH WIND       PRES   REMARKS
CRAIG          FAIR      81  27  14 VRB6      30.26S
HAYDEN         FAIR      75  30  19 NW5       30.29S
MEEKER         FAIR      80  28  15 SW10      30.26S
MOUNT WERNER   NOT AVBL
STEAMBOAT SPGS FAIR      78  32  19 W14       30.29S
WALDEN           N/A     73  19  13 S5        30.41S
$$

COZ006>008-011-290000-
...WEST CENTRAL VALLEYS...

CITY           SKY/WX    TMP DP  RH WIND       PRES   REMARKS
GRAND JUNCTION FAIR      82  36  19 NW7       30.15F
MONTROSE       FAIR      78  36  21 N5        30.23S
EAGLE          MOSUNNY   79  28  15 E15G26    30.29R
RIFLE          FAIR      80  33  18 W12       30.19S
DELTA          NOT AVBL
NUCLA          FAIR      77  32  19 N3        30.27F
$$

COZ017>023-064>068-290000-
...SOUTHWEST COLORADO...

CITY           SKY/WX    TMP DP  RH WIND       PRES   REMARKS
DURANGO        FAIR      75  29  18 SW7       30.32S
CORTEZ         FAIR      77  37  23 S9G18     30.26S
PAGOSA SPRINGS FAIR      74  18  12 S7        30.39S
TELLURIDE      PTSUNNY   69  27  20 SW10G17   30.47S
WOLF CREEK PAS CLOUDY    50  28  43 SW7       30.71S
$$

COZ009-010-012-014-032>034-037-058>063-290000-
...CENTRAL COLORADO...

CITY           SKY/WX    TMP DP  RH WIND       PRES   REMARKS
ASPEN          FAIR      74  29  19 N5        30.34S
BUENA VISTA    FAIR      73  20  13 S12G20    30.42S
COPPER MTN     FAIR      59  14  17 SE21G28   30.68F
BERTHOUD PASS  FAIR      43  30  61 E28G39    30.74S
COTTONWOOD PAS FAIR      68  18  14 SE12G24   30.55S
GUNNISON       FAIR      73  23  15 E12       30.36S HAZE
KREMMLING      FAIR      75  14   9 CALM      30.34S
LEADVILLE      FAIR      62  18  18 S15       30.52S
MONARCH PASS   CLOUDY    54  23  30 NE8       30.80S
SALIDA         FAIR      76  25  14 SE14      30.45S
SUNLIGHT       FAIR      59  30  33 NW7       30.62S
WILKERSON PASS FAIR      59  19  21 SW3       30.70S
$$

COZ069>075-290000-
...SAN LUIS VALLEY/SANGRE DE CRISTO MOUNTAINS...

CITY           SKY/WX    TMP DP  RH WIND       PRES   REMARKS
ALAMOSA        FAIR      75  23  14 S10       30.37F
LA VETA PASS   FAIR      59  27  29 MISG      30.60S
SAGUACHE       NOT AVBL
$$

COZ035-036-038>040-290000-
...NORTHERN COLORADO FRONT RANGE...

CITY           SKY/WX    TMP DP  RH WIND       PRES   REMARKS
DENVER INTL AP FAIR      81  28  14 E10       30.28F
DMNS CITY PARK   N/A     80  29  15 E10       30.27S
AURORA         MOSUNNY   81  28  14 E15       30.29F
FRONT RANGE AP MOSUNNY   82  28  14 E12G22    30.31S
ERIE MUNI ARPT FAIR      82  24  12 E6        30.27S
BOULDER MUN AP FAIR      81  30  16 CALM      30.28S
CENTENNIAL     FAIR      80  26  13 E14G22    30.29F
BROOMFIELD     MOSUNNY   81  28  15 E5        30.31S
FORT COLLINS   FAIR      81  34  18 SE10      30.25S
LONGMONT       FAIR      83  30  14 E9        30.29S
$$

COZ041-046-047-076>085-087-088-290000-
...PIKES PEAK/PALMER DIVIDE AND SOUTHERN FOOTHILLS...

CITY           SKY/WX    TMP DP  RH WIND       PRES   REMARKS
COLO. SPRINGS  FAIR      78  28  16 SE16      30.36S
A. F. ACADEMY  FAIR      76  29  17 S12       30.36S
SCHRIEVER AFB  NOT AVBL
ELLICOTT       NOT AVBL
FALCON         FAIR      75  24  15 S6        30.41S
FORT CARSON    FAIR      78  29  16 SE13      30.33S
LIMON          FAIR      79  30  16 E7        30.31S
MONUMENT HILL  FAIR      72  28  20 S13G21    30.41S
TRINIDAD       FAIR      80  27  14 SE12      30.31S
$$

COZ042>045-048>051-090-091-290000-
...NORTHEAST COLORADO...

CITY           SKY/WX    TMP DP  RH WIND       PRES   REMARKS
GREELEY ARPT   FAIR      81  36  19 SE13      30.28S
AKRON          FAIR      80  35  19 VRB5      30.29R
BURLINGTON     FAIR      82  37  20 E9        30.27R
WRAY           FAIR      81  34  18 NE9       30.25
STERLING       FAIR      81  39  22 NE7       30.25S
HOLYOKE        FAIR      81  32  17 NE10      30.26R
FORT MORGAN    FAIR      81  31  16 E8        30.29S
$$

COZ086-089-092>099-290000-
...SOUTHEAST COLORADO...

CITY           SKY/WX    TMP DP  RH WIND       PRES   REMARKS
PUEBLO         FAIR      84  31  14 SE13      30.25S
LA JUNTA       FAIR      84  34  16 NE8       30.24S
LAMAR          FAIR      86  34  15 E8        30.20S
SPRINGFIELD      N/A     82  34  17 E9        30.25R
$$




USA.gov is the U.S. government's official web portal to all federal, state and local government web resources and services.